Simultaneous Nadir Overpasses (SNOs) Predictions

Prediction of SNOs between GOES-16 and NOAA-19 Satellite Orbit:

Table of predicted SNOs for the next 14.0 days since TLE Epoch: 4/4/2025
Index Date Time (GOES-16) GOES-16 Lat,Lon NOAA-19 Lat,Lon Distance(km) Time Diff (sec)
1 04/05/2025 14:33:04 0.06, -75.49 -0.65, -72.25 368.98 80
2 04/07/2025 03:04:25 -0.06, -75.48 -1.08, -79.79 492.49 80
3 04/08/2025 02:51:50 -0.06, -75.48 -0.32, -76.74 143.39 80
4 04/09/2025 02:36:35 -0.06, -75.49 0.38, -73.69 206.05 80
5 04/11/2025 14:55:12 0.06, -75.52 0.63, -78.13 296.84 80
6 04/12/2025 14:45:15 0.06, -75.53 -0.04, -75.06 53.53 80
7 04/13/2025 14:32:40 0.05, -75.55 -0.77, -72.01 403.93 80
8 04/15/2025 03:04:02 -0.05, -75.55 -0.99, -79.54 455.87 80
9 04/16/2025 02:51:27 -0.05, -75.57 -0.27, -76.49 105.56 80
10 04/17/2025 02:36:11 -0.05, -75.58 0.46, -73.44 244.79 80
